Time,TemperatureF,DewpointF,PressureIn,WindDirection,WindDirectionDegrees,WindSpeedMPH,WindSpeedGustMPH,Humidity,HourlyPrecipIn,Conditions,Clouds,dailyrainin,SolarRadiationWatts/m^2,SoftwareType,DateUTC
2013-12-19 00:02:00,32.4,15.8,29.74,East,90,0.0,0.0,50,0.00,CLR,SCT,0.00,0.0,WeatherDisplay:10.37,2013-12-19 06:02:00,
2013-12-19 00:07:00,32.2,15.1,29.74,ENE,68,1.1,1.1,49,0.00,CLR,SCT,0.00,0.0,WeatherDisplay:10.37,2013-12-19 06:07:00,
2013-12-19 00:12:00,32.2,15.1,29.74,ENE,68,0.0,0.0,49,0.00,CLR,SCT,0.00,0.0,WeatherDisplay:10.37,2013-12-19 06:12:00,
2013-12-19 00:17:00,32.2,16.9,29.74,NNE,22,0.0,0.0,53,0.00,CLR,SCT,0.00,0.0,WeatherDisplay:10.37,2013-12-19 06:17:00,
2013-12-19 00:22:00,31.6,16.4,29.74,NNE,22,0.0,0.0,53,0.00,CLR,SCT,0.00,0.0,WeatherDisplay:10.37,2013-12-19 06:22:00,
2013-12-19 00:27:00,31.5,15.8,29.74,NNE,22,0.0,0.0,52,0.00,CLR,SCT,0.00,0.0,WeatherDisplay:10.37,2013-12-19 06:27:00,
2013-12-19 00:32:00,31.5,15.4,29.74,ESE,112,0.0,1.1,51,0.00,CLR,SCT,0.00,0.0,WeatherDisplay:10.37,2013-12-19 06:32:00,
2013-12-19 00:37:00,31.6,16.0,29.74,ESE,112,0.0,0.0,52,0.00,CLR,SCT,0.00,0.0,WeatherDisplay:10.37,2013-12-19 06:37:00,
2013-12-19 00:42:00,31.5,16.3,29.74,ESE,112,0.0,0.0,53,0.00,CLR,SCT,0.00,0.0,WeatherDisplay:10.37,2013-12-19 06:42:00,
2013-12-19 00:47:00,31.1,15.5,29.74,ESE,112,0.0,0.0,52,0.00,CLR,SCT,0.00,0.0,WeatherDisplay:10.37,2013-12-19 06:47:00,
2013-12-19 00:52:00,31.1,15.5,29.74,ESE,112,0.0,0.0,52,0.00,CLR,SCT,0.00,0.0,WeatherDisplay:10.37,2013-12-19 06:52:00,
2013-12-19 00:57:00,31.1,15.5,29.71,ESE,112,0.0,0.0,52,0.00,CLR,SCT,0.00,0.0,WeatherDisplay:10.37,2013-12-19 06:57:00,
2013-12-19 01:02:00,30.9,15.8,29.71,ESE,112,0.0,0.0,53,0.00,CLR,SCT,0.00,0.0,WeatherDisplay:10.37,2013-12-19 07:02:00,
2013-12-19 01:07:00,30.7,16.0,29.71,ESE,112,0.0,0.0,54,0.00,CLR,SCT,0.00,0.0,WeatherDisplay:10.37,2013-12-19 07:07:00,
2013-12-19 01:12:00,30.6,15.4,29.71,ESE,112,0.0,0.0,53,0.00,CLR,SCT,0.00,0.0,WeatherDisplay:10.37,2013-12-19 07:12:00,
2013-12-19 01:17:00,30.4,15.3,29.71,ESE,112,0.0,0.0,53,0.00,CLR,SCT,0.00,0.0,WeatherDisplay:10.37,2013-12-19 07:17:00,
2013-12-19 01:22:00,30.4,16.1,29.71,ESE,112,0.0,0.0,55,0.00,CLR,SCT,0.00,0.0,WeatherDisplay:10.37,2013-12-19 07:22:00,
2013-12-19 01:27:00,30.6,17.1,29.71,WNW,292,0.0,1.1,57,0.00,CLR,SCT,0.00,0.0,WeatherDisplay:10.37,2013-12-19 07:27:00,
2013-12-19 01:32:00,30.4,16.9,29.71,NNW,338,0.9,2.0,57,0.00,CLR,SCT,0.00,0.0,WeatherDisplay:10.37,2013-12-19 07:32:00,
2013-12-19 01:37:00,30.6,17.5,29.71,NNW,338,0.0,0.0,58,0.00,CLR,SCT,0.00,0.0,WeatherDisplay:10.37,2013-12-19 07:37:00,
2013-12-19 01:42:00,30.7,18.1,29.74,NNW,338,0.0,0.0,59,0.00,CLR,SCT,0.00,0.0,WeatherDisplay:10.37,2013-12-19 07:42:00,
2013-12-19 01:47:00,30.9,18.3,29.74,NNW,338,0.0,1.1,59,0.00,CLR,SCT,0.00,0.0,WeatherDisplay:10.37,2013-12-19 07:47:00,
2013-12-19 01:52:00,31.3,19.0,29.74,NNE,22,1.1,1.1,60,0.00,CLR,SCT,0.00,0.0,WeatherDisplay:10.37,2013-12-19 07:52:00,
2013-12-19 01:57:00,31.6,19.3,29.74,NNE,22,0.9,2.0,60,0.00,CLR,SCT,0.00,0.0,WeatherDisplay:10.37,2013-12-19 07:57:00,
2013-12-19 02:02:00,31.8,19.1,29.74,SW,225,0.0,1.1,59,0.00,CLR,SCT,0.00,0.0,WeatherDisplay:10.37,2013-12-19 08:02:00,
2013-12-19 02:07:00,32.0,18.9,29.74,North,0,1.4,3.5,58,0.00,CLR,SCT,0.00,0.0,WeatherDisplay:10.37,2013-12-19 08:07:00,
2013-12-19 02:12:00,32.2,19.0,29.74,NNW,338,2.4,3.5,58,0.00,CLR,SCT,0.00,0.0,WeatherDisplay:10.37,2013-12-19 08:12:00,
2013-12-19 02:17:00,32.5,19.4,29.74,North,0,1.6,3.6,58,0.00,CLR,SCT,0.00,0.0,WeatherDisplay:10.37,2013-12-19 08:17:00,
2013-12-19 02:22:00,32.9,19.3,29.74,WSW,248,2.4,4.6,57,0.00,CLR,SCT,0.00,0.0,WeatherDisplay:10.37,2013-12-19 08:22:00,
2013-12-19 02:27:00,33.1,19.1,29.74,NNE,22,3.3,3.6,56,0.00,CLR,SCT,0.00,0.0,WeatherDisplay:10.37,2013-12-19 08:27:00,
2013-12-19 02:32:00,33.1,18.7,29.74,NNW,338,2.4,3.5,55,0.00,CLR,SCT,0.00,0.0,WeatherDisplay:10.37,2013-12-19 08:32:00,
2013-12-19 02:37:00,33.3,18.8,29.74,ENE,68,1.4,2.3,55,0.00,CLR,SCT,0.00,0.0,WeatherDisplay:10.37,2013-12-19 08:37:00,
2013-12-19 02:42:00,33.3,18.4,29.74,NNW,338,1.4,3.5,54,0.00,CLR,SCT,0.00,0.0,WeatherDisplay:10.37,2013-12-19 08:42:00,
2013-12-19 02:47:00,33.4,18.6,29.74,NNE,22,2.9,3.5,54,0.00,CLR,SCT,0.00,0.0,WeatherDisplay:10.37,2013-12-19 08:47:00,
2013-12-19 02:52:00,33.6,18.7,29.74,West,270,2.0,4.6,54,0.00,CLR,SCT,0.00,0.0,WeatherDisplay:10.37,2013-12-19 08:52:00,
2013-12-19 02:57:00,33.6,18.3,29.74,NNE,22,2.6,3.5,53,0.00,CLR,SCT,0.00,0.0,WeatherDisplay:10.37,2013-12-19 08:57:00,
2013-12-19 03:02:00,33.6,18.3,29.74,NNE,22,2.9,4.6,53,0.00,CLR,SCT,0.00,0.0,WeatherDisplay:10.37,2013-12-19 09:02:00,
2013-12-19 03:07:00,33.8,18.5,29.74,ESE,112,2.4,3.5,53,0.00,CLR,SCT,0.00,0.0,WeatherDisplay:10.37,2013-12-19 09:07:00,
2013-12-19 03:12:00,33.8,18.0,29.74,North,0,1.1,2.3,52,0.00,CLR,SCT,0.00,0.0,WeatherDisplay:10.37,2013-12-19 09:12:00,
2013-12-19 03:17:00,34.0,18.2,29.74,South,180,2.0,2.4,52,0.00,CLR,SCT,0.00,0.0,WeatherDisplay:10.37,2013-12-19 09:17:00,
2013-12-19 03:22:00,34.0,18.2,29.74,ENE,68,2.6,4.6,52,0.00,CLR,SCT,0.00,0.0,WeatherDisplay:10.37,2013-12-19 09:22:00,
2013-12-19 03:27:00,34.0,18.2,29.77,NE,45,1.4,2.4,52,0.00,CLR,SCT,0.00,0.0,WeatherDisplay:10.37,2013-12-19 09:27:00,
2013-12-19 03:32:00,34.0,18.2,29.77,East,90,0.9,2.3,52,0.00,CLR,SCT,0.00,0.0,WeatherDisplay:10.37,2013-12-19 09:32:00,
2013-12-19 03:37:00,33.8,17.6,29.77,NNE,22,2.9,4.6,51,0.00,CLR,SCT,0.00,0.0,WeatherDisplay:10.37,2013-12-19 09:37:00,
2013-12-19 03:42:00,34.0,17.7,29.77,NE,45,2.0,3.5,51,0.00,CLR,SCT,0.00,0.0,WeatherDisplay:10.37,2013-12-19 09:42:00,
2013-12-19 03:47:00,33.8,17.6,29.77,ENE,68,2.4,2.6,51,0.00,CLR,SCT,0.00,0.0,WeatherDisplay:10.37,2013-12-19 09:47:00,
2013-12-19 03:52:00,33.8,17.6,29.77,SSE,158,2.9,3.5,51,0.00,CLR,SCT,0.00,0.0,WeatherDisplay:10.37,2013-12-19 09:52:00,
2013-12-19 03:57:00,33.6,17.4,29.77,ENE,68,2.2,4.6,51,0.00,CLR,SCT,0.00,0.0,WeatherDisplay:10.37,2013-12-19 09:57:00,
2013-12-19 04:02:00,33.4,17.2,29.77,NE,45,1.1,3.5,51,0.00,CLR,SCT,0.00,0.0,WeatherDisplay:10.37,2013-12-19 10:02:00,
2013-12-19 04:07:00,33.3,17.1,29.77,SSE,158,2.4,3.5,51,0.00,CLR,SCT,0.00,0.0,WeatherDisplay:10.37,2013-12-19 10:07:00,
2013-12-19 04:12:00,33.3,17.1,29.74,NNE,22,1.6,3.5,51,0.00,CLR,SCT,0.00,0.0,WeatherDisplay:10.37,2013-12-19 10:12:00,
2013-12-19 04:17:00,33.1,16.9,29.74,ESE,112,1.4,3.5,51,0.00,CLR,SCT,0.00,0.0,WeatherDisplay:10.37,2013-12-19 10:17:00,
2013-12-19 04:22:00,32.9,16.7,29.74,NNE,22,2.0,2.6,51,0.00,CLR,SCT,0.00,0.0,WeatherDisplay:10.37,2013-12-19 10:22:00,
2013-12-19 04:27:00,32.7,16.6,29.74,NE,45,1.4,2.3,51,0.00,CLR,SCT,0.00,0.0,WeatherDisplay:10.37,2013-12-19 10:27:00,
2013-12-19 04:32:00,32.7,16.6,29.74,ENE,68,0.9,2.3,51,0.00,CLR,SCT,0.00,0.0,WeatherDisplay:10.37,2013-12-19 10:32:00,
2013-12-19 04:37:00,32.7,17.0,29.74,NNW,338,2.0,4.6,52,0.00,CLR,SCT,0.00,0.0,WeatherDisplay:10.37,2013-12-19 10:37:00,
2013-12-19 04:42:00,32.7,17.0,29.77,North,0,1.6,2.6,52,0.00,CLR,SCT,0.00,0.0,WeatherDisplay:10.37,2013-12-19 10:42:00,
2013-12-19 04:47:00,32.7,17.0,29.77,SSE,158,2.0,3.5,52,0.00,CLR,SCT,0.00,0.0,WeatherDisplay:10.37,2013-12-19 10:47:00,
2013-12-19 04:52:00,32.7,17.5,29.77,NNW,338,1.6,4.6,53,0.00,CLR,SCT,0.00,0.0,WeatherDisplay:10.37,2013-12-19 10:52:00,
2013-12-19 04:57:00,32.7,17.0,29.77,East,90,2.2,2.3,52,0.00,CLR,SCT,0.00,0.0,WeatherDisplay:10.37,2013-12-19 10:57:00,
2013-12-19 05:02:00,32.9,17.6,29.77,North,0,3.1,3.5,53,0.00,CLR,SCT,0.00,0.0,WeatherDisplay:10.37,2013-12-19 11:02:00,
2013-12-19 05:07:00,33.1,17.8,29.77,ENE,68,2.9,4.9,53,0.00,CLR,SCT,0.00,0.0,WeatherDisplay:10.37,2013-12-19 11:07:00,
2013-12-19 05:12:00,33.1,17.8,29.74,ENE,68,2.6,5.8,53,0.00,CLR,SCT,0.00,0.0,WeatherDisplay:10.37,2013-12-19 11:12:00,
2013-12-19 05:17:00,33.3,17.5,29.74,East,90,2.6,3.5,52,0.00,CLR,SCT,0.00,0.0,WeatherDisplay:10.37,2013-12-19 11:17:00,
2013-12-19 05:22:00,33.3,17.5,29.74,ESE,112,2.4,4.6,52,0.00,CLR,SCT,0.00,0.0,WeatherDisplay:10.37,2013-12-19 11:22:00,
2013-12-19 05:27:00,33.4,17.7,29.74,East,90,2.9,4.6,52,0.00,CLR,SCT,0.00,0.0,WeatherDisplay:10.37,2013-12-19 11:27:00,
2013-12-19 05:32:00,33.4,17.7,29.74,ENE,68,2.4,4.6,52,0.00,CLR,SCT,0.00,0.0,WeatherDisplay:10.37,2013-12-19 11:32:00,
2013-12-19 05:37:00,33.4,17.7,29.74,NE,45,3.1,3.6,52,0.00,CLR,SCT,0.00,0.0,WeatherDisplay:10.37,2013-12-19 11:37:00,
2013-12-19 05:42:00,33.4,17.2,29.74,ENE,68,1.6,2.4,51,0.00,CLR,SCT,0.00,0.0,WeatherDisplay:10.37,2013-12-19 11:42:00,
2013-12-19 05:47:00,33.4,17.2,29.74,ESE,112,3.8,4.6,51,0.00,CLR,SCT,0.00,0.0,WeatherDisplay:10.37,2013-12-19 11:47:00,
2013-12-19 05:52:00,33.4,17.2,29.74,NE,45,2.0,2.9,51,0.00,CLR,SCT,0.00,0.0,WeatherDisplay:10.37,2013-12-19 11:52:00,
2013-12-19 05:57:00,33.3,17.1,29.74,NNE,22,3.3,4.6,51,0.00,CLR,SCT,0.00,0.0,WeatherDisplay:10.37,2013-12-19 11:57:00,
2013-12-19 06:02:00,33.3,17.1,29.74,WSW,248,2.2,3.5,51,0.00,CLR,SCT,0.00,0.0,WeatherDisplay:10.37,2013-12-19 12:02:00,
2013-12-19 06:07:00,33.3,17.1,29.74,NNW,338,2.6,4.6,51,0.00,CLR,SCT,0.00,0.0,WeatherDisplay:10.37,2013-12-19 12:07:00,
2013-12-19 06:12:00,33.1,16.9,29.74,ENE,68,2.2,4.7,51,0.00,CLR,SCT,0.00,0.0,WeatherDisplay:10.37,2013-12-19 12:12:00,
2013-12-19 06:17:00,33.1,16.9,29.74,East,90,1.6,2.4,51,0.00,CLR,SCT,0.00,0.0,WeatherDisplay:10.37,2013-12-19 12:17:00,
2013-12-19 06:22:00,32.9,17.2,29.74,North,0,3.1,5.8,52,0.00,CLR,SCT,0.00,0.0,WeatherDisplay:10.37,2013-12-19 12:22:00,
2013-12-19 06:27:00,32.9,17.2,29.74,ENE,68,3.1,6.4,52,0.00,CLR,SCT,0.00,0.0,WeatherDisplay:10.37,2013-12-19 12:27:00,
2013-12-19 06:32:00,32.9,17.2,29.74,ENE,68,2.4,3.5,52,0.00,CLR,SCT,0.00,0.0,WeatherDisplay:10.37,2013-12-19 12:32:00,
2013-12-19 06:37:00,32.7,17.5,29.74,ESE,112,2.6,5.4,53,0.00,CLR,SCT,0.00,0.0,WeatherDisplay:10.37,2013-12-19 12:37:00,
2013-12-19 06:42:00,32.7,17.5,29.77,ESE,112,3.3,4.6,53,0.00,CLR,SCT,0.00,0.0,WeatherDisplay:10.37,2013-12-19 12:42:00,
2013-12-19 06:47:00,32.7,17.5,29.77,East,90,3.6,5.9,53,0.00,CLR,SCT,0.00,0.0,WeatherDisplay:10.37,2013-12-19 12:47:00,
2013-12-19 06:52:00,32.7,17.9,29.77,ENE,68,3.8,4.6,54,0.00,CLR,SCT,0.00,0.0,WeatherDisplay:10.37,2013-12-19 12:52:00,
2013-12-19 06:57:00,32.7,17.9,29.77,ENE,68,3.1,4.6,54,0.00,CLR,SCT,0.00,0.0,WeatherDisplay:10.37,2013-12-19 12:57:00,
2013-12-19 07:02:00,32.7,17.5,29.77,NNE,22,3.6,5.8,53,0.00,CLR,SCT,0.00,0.0,WeatherDisplay:10.37,2013-12-19 13:02:00,
2013-12-19 07:07:00,32.7,17.5,29.77,SSE,158,3.3,5.8,53,0.00,CLR,SCT,0.00,0.0,WeatherDisplay:10.37,2013-12-19 13:07:00,
2013-12-19 07:12:00,32.5,17.3,29.74,East,90,3.3,6.9,53,0.00,CLR,SCT,0.00,0.0,WeatherDisplay:10.37,2013-12-19 13:12:00,
2013-12-19 07:17:00,32.5,17.3,29.74,NNW,338,3.8,5.8,53,0.00,OVC,SCT,0.00,0.0,WeatherDisplay:10.37,2013-12-19 13:17:00,
2013-12-19 07:22:00,32.4,17.1,29.74,ENE,68,2.6,7.8,53,0.00,OVC,SCT,0.00,0.0,WeatherDisplay:10.37,2013-12-19 13:22:00,
2013-12-19 07:27:00,32.2,16.9,29.77,NNW,338,2.6,4.6,53,0.00,OVC,SCT,0.00,0.0,WeatherDisplay:10.37,2013-12-19 13:27:00,
2013-12-19 07:32:00,32.2,16.9,29.77,NNE,22,2.2,2.9,53,0.00,OVC,SCT,0.00,0.0,WeatherDisplay:10.37,2013-12-19 13:32:00,
2013-12-19 07:37:00,32.0,16.8,29.77,ENE,68,3.8,7.1,53,0.00,OVC,SCT,0.00,0.0,WeatherDisplay:10.37,2013-12-19 13:37:00,
2013-12-19 07:42:00,31.8,16.6,29.77,North,0,2.0,3.5,53,0.00,OVC,SCT,0.00,0.0,WeatherDisplay:10.37,2013-12-19 13:42:00,
2013-12-19 07:47:00,31.6,16.4,29.77,ESE,112,3.1,3.5,53,0.00,OVC,SCT,0.00,0.0,WeatherDisplay:10.37,2013-12-19 13:47:00,
2013-12-19 07:52:00,31.5,16.7,29.77,East,90,4.3,6.4,54,0.00,OVC,SCT,0.00,0.0,WeatherDisplay:10.37,2013-12-19 13:52:00,
2013-12-19 07:57:00,31.1,16.4,29.77,ESE,112,3.1,5.8,54,0.00,OVC,SCT,0.00,0.0,WeatherDisplay:10.37,2013-12-19 13:57:00,
2013-12-19 08:02:00,31.1,16.4,29.77,WSW,248,2.2,3.6,54,0.00,OVC,SCT,0.00,0.0,WeatherDisplay:10.37,2013-12-19 14:02:00,
2013-12-19 08:07:00,30.9,16.2,29.77,NNW,338,3.1,4.6,54,0.00,OVC,SCT,0.00,0.0,WeatherDisplay:10.37,2013-12-19 14:07:00,
2013-12-19 08:12:00,30.7,16.0,29.77,North,0,2.9,4.6,54,0.00,OVC,SCT,0.00,0.0,WeatherDisplay:10.37,2013-12-19 14:12:00,
2013-12-19 08:17:00,30.6,16.3,29.77,NNW,338,2.2,2.3,55,0.00,OVC,SCT,0.00,0.0,WeatherDisplay:10.37,2013-12-19 14:17:00,
2013-12-19 08:22:00,30.4,16.1,29.77,ENE,68,2.6,4.6,55,0.00,OVC,SCT,0.00,0.0,WeatherDisplay:10.37,2013-12-19 14:22:00,
2013-12-19 08:27:00,30.4,16.1,29.77,ESE,112,2.6,4.6,55,0.00,OVC,SCT,0.00,0.0,WeatherDisplay:10.37,2013-12-19 14:27:00,
2013-12-19 08:32:00,30.4,16.1,29.77,East,90,4.5,6.9,55,0.00,OVC,SCT,0.00,0.0,WeatherDisplay:10.37,2013-12-19 14:32:00,
2013-12-19 08:37:00,30.2,16.4,29.77,ENE,68,3.3,6.9,56,0.00,OVC,SCT,0.00,0.0,WeatherDisplay:10.37,2013-12-19 14:37:00,
2013-12-19 08:42:00,30.2,16.4,29.80,NNE,22,3.6,5.8,56,0.00,OVC,SCT,0.00,0.0,WeatherDisplay:10.37,2013-12-19 14:42:00,
2013-12-19 08:47:00,30.2,16.4,29.80,NNE,22,3.8,6.0,56,0.00,OVC,SCT,0.00,0.0,WeatherDisplay:10.37,2013-12-19 14:47:00,
2013-12-19 08:52:00,30.2,16.4,29.80,SSE,158,3.6,6.9,56,0.00,OVC,SCT,0.00,0.0,WeatherDisplay:10.37,2013-12-19 14:52:00,
2013-12-19 08:57:00,30.2,16.4,29.80,ENE,68,4.5,6.9,56,0.00,OVC,SCT,0.00,0.0,WeatherDisplay:10.37,2013-12-19 14:57:00,
2013-12-19 09:02:00,30.2,16.4,29.80,ENE,68,3.1,4.6,56,0.00,OVC,SCT,0.00,0.0,WeatherDisplay:10.37,2013-12-19 15:02:00,
2013-12-19 09:07:00,30.2,16.0,29.80,NW,315,4.3,5.9,55,0.00,OVC,SCT,0.00,0.0,WeatherDisplay:10.37,2013-12-19 15:07:00,
2013-12-19 09:12:00,30.0,15.8,29.80,ESE,112,2.4,5.8,55,0.00,OVC,SCT,0.00,0.0,WeatherDisplay:10.37,2013-12-19 15:12:00,
2013-12-19 09:17:00,30.0,15.8,29.80,NNE,22,2.9,3.5,55,0.00,OVC,SCT,0.00,0.0,WeatherDisplay:10.37,2013-12-19 15:17:00,
2013-12-19 09:22:00,30.0,15.8,29.80,ENE,68,3.6,4.9,55,0.00,OVC,SCT,0.00,0.0,WeatherDisplay:10.37,2013-12-19 15:22:00,
2013-12-19 09:27:00,29.8,15.6,29.83,NNE,22,2.2,3.8,55,0.00,OVC,SCT,0.00,0.0,WeatherDisplay:10.37,2013-12-19 15:27:00,
2013-12-19 09:32:00,29.8,15.6,29.83,East,90,3.1,4.6,55,0.00,OVC,SCT,0.00,0.0,WeatherDisplay:10.37,2013-12-19 15:32:00,
2013-12-19 09:37:00,29.7,15.5,29.83,NE,45,4.5,6.9,55,0.00,OVC,SCT,0.00,0.0,WeatherDisplay:10.37,2013-12-19 15:37:00,
2013-12-19 09:42:00,29.7,15.0,29.83,ESE,112,4.9,8.1,54,0.00,OVC,SCT,0.00,0.0,WeatherDisplay:10.37,2013-12-19 15:42:00,
2013-12-19 09:47:00,29.5,14.9,29.83,North,0,2.6,3.6,54,0.00,OVC,SCT,0.00,0.0,WeatherDisplay:10.37,2013-12-19 15:47:00,
2013-12-19 09:52:00,29.5,14.4,29.83,ESE,112,4.5,6.9,53,0.00,OVC,SCT,0.00,0.0,WeatherDisplay:10.37,2013-12-19 15:52:00,
2013-12-19 09:57:00,29.5,14.4,29.83,NNW,338,3.3,8.1,53,0.00,OVC,SCT,0.00,0.0,WeatherDisplay:10.37,2013-12-19 15:57:00,
2013-12-19 10:02:00,29.5,14.4,29.83,ESE,112,2.6,4.6,53,0.00,OVC,SCT,0.00,0.0,WeatherDisplay:10.37,2013-12-19 16:02:00,
2013-12-19 10:07:00,29.5,14.4,29.83,NNE,22,4.5,6.9,53,0.00,OVC,SCT,0.00,0.0,WeatherDisplay:10.37,2013-12-19 16:07:00,
2013-12-19 10:12:00,29.5,14.4,29.83,NNE,22,6.2,9.2,53,0.00,OVC,SCT,0.00,0.0,WeatherDisplay:10.37,2013-12-19 16:12:00,
2013-12-19 10:17:00,29.3,13.8,29.83,ESE,112,4.5,6.0,52,0.00,OVC,SCT,0.00,0.0,WeatherDisplay:10.37,2013-12-19 16:17:00,
2013-12-19 10:22:00,29.1,13.7,29.83,ENE,68,4.0,6.9,52,0.00,OVC,SCT,0.00,0.0,WeatherDisplay:10.37,2013-12-19 16:22:00,
2013-12-19 10:27:00,29.1,13.7,29.83,NNE,22,3.6,5.8,52,0.00,OVC,SCT,0.00,0.0,WeatherDisplay:10.37,2013-12-19 16:27:00,
2013-12-19 10:32:00,29.1,13.7,29.83,NE,45,3.3,6.9,52,0.00,OVC,SCT,0.00,0.0,WeatherDisplay:10.37,2013-12-19 16:32:00,
2013-12-19 10:37:00,29.1,13.7,29.83,NNW,338,4.0,5.8,52,0.00,OVC,SCT,0.00,0.0,WeatherDisplay:10.37,2013-12-19 16:37:00,
2013-12-19 10:42:00,29.1,13.7,29.83,NNE,22,4.0,4.0,52,0.00,OVC,SCT,0.00,0.0,WeatherDisplay:10.37,2013-12-19 16:42:00,
2013-12-19 10:47:00,29.3,13.8,29.83,ENE,68,3.1,4.6,52,0.00,OVC,SCT,0.00,0.0,WeatherDisplay:10.37,2013-12-19 16:47:00,
2013-12-19 10:52:00,29.5,14.0,29.83,NNW,338,3.1,4.6,52,0.00,OVC,SCT,0.00,0.0,WeatherDisplay:10.37,2013-12-19 16:52:00,
2013-12-19 10:57:00,29.7,14.2,29.83,NNE,22,4.3,5.8,52,0.00,OVC,SCT,0.00,0.0,WeatherDisplay:10.37,2013-12-19 16:57:00,
2013-12-19 11:02:00,29.8,14.3,29.83,ENE,68,3.3,4.6,52,0.00,OVC,SCT,0.00,0.0,WeatherDisplay:10.37,2013-12-19 17:02:00,
2013-12-19 11:07:00,30.0,14.1,29.83,NNE,22,4.3,6.0,51,0.00,OVC,SCT,0.00,0.0,WeatherDisplay:10.37,2013-12-19 17:07:00,
2013-12-19 11:12:00,30.2,14.2,29.83,NNE,22,4.7,4.7,51,0.00,OVC,SCT,0.00,0.0,WeatherDisplay:10.37,2013-12-19 17:12:00,
2013-12-19 11:17:00,30.6,14.1,29.83,ENE,68,3.1,5.8,50,0.00,OVC,SCT,0.00,0.0,WeatherDisplay:10.37,2013-12-19 17:17:00,
2013-12-19 11:22:00,30.7,14.3,29.83,ESE,112,4.0,5.8,50,0.00,OVC,SCT,0.00,0.0,WeatherDisplay:10.37,2013-12-19 17:22:00,
2013-12-19 11:27:00,30.9,14.4,29.80,ENE,68,4.5,5.4,50,0.00,OVC,SCT,0.00,0.0,WeatherDisplay:10.37,2013-12-19 17:27:00,
2013-12-19 11:32:00,31.1,13.7,29.80,NNE,22,4.9,8.7,48,0.00,OVC,SCT,0.00,0.0,WeatherDisplay:10.37,2013-12-19 17:32:00,
2013-12-19 11:37:00,31.1,13.2,29.80,ESE,112,3.1,6.9,47,0.00,OVC,SCT,0.00,0.0,WeatherDisplay:10.37,2013-12-19 17:37:00,
2013-12-19 11:42:00,31.5,13.5,29.77,ENE,68,4.5,6.4,47,0.00,OVC,SCT,0.00,0.0,WeatherDisplay:10.37,2013-12-19 17:42:00,
2013-12-19 11:47:00,31.3,12.9,29.77,ENE,68,4.5,6.9,46,0.00,OVC,SCT,0.00,0.0,WeatherDisplay:10.37,2013-12-19 17:47:00,
2013-12-19 11:52:00,31.3,12.9,29.77,NNW,338,3.3,6.9,46,0.00,OVC,SCT,0.00,0.0,WeatherDisplay:10.37,2013-12-19 17:52:00,
2013-12-19 11:57:00,31.6,13.7,29.77,North,0,3.8,4.6,47,0.00,OVC,SCT,0.00,0.0,WeatherDisplay:10.37,2013-12-19 17:57:00,
2013-12-19 12:02:00,32.2,13.7,29.77,SSE,158,3.3,6.9,46,0.00,OVC,SCT,0.00,0.0,WeatherDisplay:10.37,2013-12-19 18:02:00,
2013-12-19 12:05:00,32.2,13.7,29.77,ESE,112,3.6,5.9,46,0.00,OVC,SCT,0.00,0.0,WeatherDisplay:10.37,2013-12-19 18:05:00,
2013-12-19 12:10:00,32.2,13.2,29.77,ESE,112,2.9,4.6,45,0.00,OVC,SCT,0.00,0.0,WeatherDisplay:10.37,2013-12-19 18:10:00,
2013-12-19 12:15:00,32.5,14.0,29.77,NNE,22,3.1,4.6,46,0.00,OVC,SCT,0.00,0.0,WeatherDisplay:10.37,2013-12-19 18:15:00,
2013-12-19 12:20:00,33.6,15.0,29.77,ENE,68,3.1,4.6,46,0.00,OVC,SCT,0.00,100.0,WeatherDisplay:10.37,2013-12-19 18:20:00,
2013-12-19 12:25:00,34.2,14.5,29.77,WSW,248,2.6,5.8,44,0.00,OVC,SCT,0.00,0.0,WeatherDisplay:10.37,2013-12-19 18:25:00,
2013-12-19 12:30:00,34.7,14.5,29.77,ENE,68,5.4,10.0,43,0.00,OVC,SCT,0.00,0.0,WeatherDisplay:10.37,2013-12-19 18:30:00,
2013-12-19 12:35:00,34.9,14.1,29.77,North,0,3.1,7.6,42,0.00,OVC,SCT,0.00,0.0,WeatherDisplay:10.37,2013-12-19 18:35:00,
2013-12-19 12:40:00,34.9,13.5,29.77,North,0,3.8,5.8,41,0.00,OVC,SCT,0.00,0.0,WeatherDisplay:10.37,2013-12-19 18:40:00,
2013-12-19 12:45:00,35.1,13.7,29.77,ENE,68,4.0,6.9,41,0.00,OVC,SCT,0.00,0.0,WeatherDisplay:10.37,2013-12-19 18:45:00,
2013-12-19 12:50:00,35.2,13.9,29.77,NNW,338,2.9,5.8,41,0.00,OVC,SCT,0.00,0.0,WeatherDisplay:10.37,2013-12-19 18:50:00,
2013-12-19 12:55:00,35.1,13.7,29.77,ESE,112,4.3,5.8,41,0.00,OVC,SCT,0.00,0.0,WeatherDisplay:10.37,2013-12-19 18:55:00,
2013-12-19 13:00:00,34.9,13.0,29.77,NE,45,3.6,5.8,40,0.00,OVC,SCT,0.00,0.0,WeatherDisplay:10.37,2013-12-19 19:00:00,
2013-12-19 13:05:00,34.3,12.5,29.77,North,0,6.4,9.2,40,0.00,OVC,SCT,0.00,0.0,WeatherDisplay:10.37,2013-12-19 19:05:00,
2013-12-19 13:10:00,34.3,13.0,29.74,NNE,22,3.8,6.9,41,0.00,OVC,SCT,0.00,0.0,WeatherDisplay:10.37,2013-12-19 19:10:00,
2013-12-19 13:15:00,34.3,13.0,29.74,SSE,158,3.6,8.1,41,0.00,OVC,SCT,0.00,0.0,WeatherDisplay:10.37,2013-12-19 19:15:00,
2013-12-19 13:20:00,34.9,13.5,29.74,North,0,2.4,3.5,41,0.00,OVC,SCT,0.00,0.0,WeatherDisplay:10.37,2013-12-19 19:20:00,
2013-12-19 13:25:00,35.1,13.7,29.77,ESE,112,4.3,4.6,41,0.00,OVC,SCT,0.00,0.0,WeatherDisplay:10.37,2013-12-19 19:25:00,
2013-12-19 13:30:00,34.9,13.5,29.77,ENE,68,4.3,5.8,41,0.00,OVC,SCT,0.00,0.0,WeatherDisplay:10.37,2013-12-19 19:30:00,
2013-12-19 13:35:00,34.5,13.2,29.77,SSW,202,4.5,4.6,41,0.00,OVC,SCT,0.00,0.0,WeatherDisplay:10.37,2013-12-19 19:35:00,
2013-12-19 13:40:00,34.2,12.9,29.74,ENE,68,3.8,5.8,41,0.00,OVC,SCT,0.00,0.0,WeatherDisplay:10.37,2013-12-19 19:40:00,
2013-12-19 13:45:00,34.2,12.9,29.74,NNW,338,3.3,4.6,41,0.00,OVC,SCT,0.00,0.0,WeatherDisplay:10.37,2013-12-19 19:45:00,
2013-12-19 13:50:00,34.0,12.7,29.74,ENE,68,4.7,7.6,41,0.00,OVC,SCT,0.00,0.0,WeatherDisplay:10.37,2013-12-19 19:50:00,
2013-12-19 13:55:00,34.0,12.7,29.74,NE,45,2.9,4.6,41,0.00,OVC,SCT,0.00,0.0,WeatherDisplay:10.37,2013-12-19 19:55:00,
2013-12-19 14:00:00,34.0,12.7,29.74,NNE,22,3.1,3.5,41,0.00,OVC,SCT,0.00,0.0,WeatherDisplay:10.37,2013-12-19 20:00:00,
2013-12-19 14:05:00,34.0,12.7,29.74,ENE,68,5.6,8.1,41,0.00,OVC,SCT,0.00,0.0,WeatherDisplay:10.37,2013-12-19 20:05:00,
2013-12-19 14:10:00,33.8,12.6,29.74,ESE,112,4.0,8.1,41,0.00,OVC,SCT,0.00,0.0,WeatherDisplay:10.37,2013-12-19 20:10:00,
2013-12-19 14:15:00,33.6,12.9,29.74,WSW,248,2.2,4.6,42,0.00,OVC,SCT,0.00,0.0,WeatherDisplay:10.37,2013-12-19 20:15:00,
2013-12-19 14:20:00,33.6,12.9,29.74,SSW,202,4.7,6.9,42,0.00,OVC,SCT,0.00,0.0,WeatherDisplay:10.37,2013-12-19 20:20:00,
2013-12-19 14:25:00,33.3,12.6,29.74,SSE,158,5.6,6.9,42,0.00,OVC,SCT,0.00,0.0,WeatherDisplay:10.37,2013-12-19 20:25:00,
2013-12-19 14:30:00,33.3,12.6,29.74,NW,315,3.1,5.8,42,0.00,OVC,SCT,0.00,0.0,WeatherDisplay:10.37,2013-12-19 20:30:00,
2013-12-19 14:35:00,33.1,12.4,29.74,East,90,3.8,5.9,42,0.00,OVC,SCT,0.00,0.0,WeatherDisplay:10.37,2013-12-19 20:35:00,
2013-12-19 14:40:00,33.1,12.4,29.74,ESE,112,2.9,5.8,42,0.00,OVC,SCT,0.00,0.0,WeatherDisplay:10.37,2013-12-19 20:40:00,
2013-12-19 14:45:00,33.1,12.4,29.74,ENE,68,2.9,3.5,42,0.00,OVC,SCT,0.00,0.0,WeatherDisplay:10.37,2013-12-19 20:45:00,
2013-12-19 14:50:00,32.9,12.3,29.74,ESE,112,3.8,9.2,42,0.00,OVC,SCT,0.00,0.0,WeatherDisplay:10.37,2013-12-19 20:50:00,
2013-12-19 14:55:00,32.7,12.1,29.74,East,90,5.4,9.2,42,0.00,OVC,SCT,0.00,0.0,WeatherDisplay:10.37,2013-12-19 20:55:00,
2013-12-19 15:00:00,32.7,12.1,29.74,WNW,292,3.1,4.6,42,0.00,OVC,SCT,0.00,0.0,WeatherDisplay:10.37,2013-12-19 21:00:00,
2013-12-19 15:05:00,32.5,12.0,29.74,West,270,4.5,6.9,42,0.00,OVC,SCT,0.00,0.0,WeatherDisplay:10.37,2013-12-19 21:05:00,
2013-12-19 15:10:00,32.4,11.8,29.74,North,0,3.6,6.9,42,0.00,OVC,SCT,0.00,0.0,WeatherDisplay:10.37,2013-12-19 21:10:00,
2013-12-19 15:15:00,32.2,11.6,29.74,NNE,22,4.7,6.9,42,0.00,OVC,SCT,0.00,0.0,WeatherDisplay:10.37,2013-12-19 21:15:00,
2013-12-19 15:20:00,32.2,11.6,29.74,ESE,112,3.3,6.4,42,0.00,OVC,SCT,0.00,0.0,WeatherDisplay:10.37,2013-12-19 21:20:00,
2013-12-19 15:25:00,31.8,11.3,29.74,NNE,22,3.3,8.5,42,0.00,OVC,SCT,0.00,0.0,WeatherDisplay:10.37,2013-12-19 21:25:00,
2013-12-19 15:30:00,31.6,11.1,29.74,North,0,3.8,5.8,42,0.00,OVC,SCT,0.00,0.0,WeatherDisplay:10.37,2013-12-19 21:30:00,
2013-12-19 15:35:00,31.5,11.0,29.74,NNE,22,3.1,5.8,42,0.00,OVC,SCT,0.00,0.0,WeatherDisplay:10.37,2013-12-19 21:35:00,
2013-12-19 15:40:00,31.3,11.3,29.74,ENE,68,4.3,4.6,43,0.00,OVC,SCT,0.00,0.0,WeatherDisplay:10.37,2013-12-19 21:40:00,
2013-12-19 15:45:00,31.1,11.2,29.74,ENE,68,4.3,5.8,43,0.00,OVC,SCT,0.00,0.0,WeatherDisplay:10.37,2013-12-19 21:45:00,
2013-12-19 15:50:00,31.1,11.2,29.74,NNE,22,4.9,9.2,43,0.00,OVC,SCT,0.00,0.0,WeatherDisplay:10.37,2013-12-19 21:50:00,
2013-12-19 15:55:00,30.9,11.0,29.71,ENE,68,3.8,4.6,43,0.00,OVC,SCT,0.00,0.0,WeatherDisplay:10.37,2013-12-19 21:55:00,
2013-12-19 16:00:00,30.9,11.0,29.71,ENE,68,4.3,8.1,43,0.00,OVC,SCT,0.00,0.0,WeatherDisplay:10.37,2013-12-19 22:00:00,
2013-12-19 16:05:00,30.9,11.5,29.71,North,0,4.0,5.8,44,0.00,OVC,SCT,0.00,0.0,WeatherDisplay:10.37,2013-12-19 22:05:00,
2013-12-19 16:10:00,30.9,11.5,29.71,ESE,112,4.0,5.8,44,0.00,OVC,SCT,0.00,0.0,WeatherDisplay:10.37,2013-12-19 22:10:00,
2013-12-19 16:15:00,30.7,11.4,29.71,NNE,22,2.9,4.6,44,0.00,OVC,SCT,0.00,0.0,WeatherDisplay:10.37,2013-12-19 22:15:00,
2013-12-19 16:20:00,30.7,11.4,29.71,ENE,68,2.6,4.6,44,0.00,OVC,SCT,0.00,0.0,WeatherDisplay:10.37,2013-12-19 22:20:00,
2013-12-19 16:25:00,30.7,11.4,29.74,NNW,338,2.6,8.1,44,0.00,OVC,SCT,0.00,0.0,WeatherDisplay:10.37,2013-12-19 22:25:00,
2013-12-19 16:30:00,30.6,11.2,29.74,North,0,4.9,5.8,44,0.00,OVC,SCT,0.00,0.0,WeatherDisplay:10.37,2013-12-19 22:30:00,
2013-12-19 16:35:00,30.6,11.2,29.74,West,270,2.9,4.6,44,0.00,OVC,SCT,0.00,0.0,WeatherDisplay:10.37,2013-12-19 22:35:00,
2013-12-19 16:40:00,30.6,11.7,29.74,East,90,2.6,6.0,45,0.00,OVC,SCT,0.00,0.0,WeatherDisplay:10.37,2013-12-19 22:40:00,
2013-12-19 16:45:00,30.6,11.7,29.74,SSE,158,2.2,3.6,45,0.00,OVC,SCT,0.00,0.0,WeatherDisplay:10.37,2013-12-19 22:45:00,
2013-12-19 16:50:00,30.6,11.7,29.74,NE,45,2.6,5.8,45,0.00,OVC,SCT,0.00,0.0,WeatherDisplay:10.37,2013-12-19 22:50:00,
2013-12-19 16:55:00,30.6,11.7,29.74,ESE,112,1.6,7.1,45,0.00,OVC,SCT,0.00,0.0,WeatherDisplay:10.37,2013-12-19 22:55:00,
2013-12-19 17:00:00,30.2,11.4,29.74,SSE,158,3.6,5.4,45,0.00,CLR,SCT,0.00,0.0,WeatherDisplay:10.37,2013-12-19 23:00:00,
2013-12-19 17:05:00,30.2,11.4,29.74,ESE,112,2.9,4.6,45,0.00,CLR,SCT,0.00,0.0,WeatherDisplay:10.37,2013-12-19 23:05:00,
2013-12-19 17:10:00,30.0,11.7,29.74,NNW,338,3.6,6.9,46,0.00,CLR,SCT,0.00,0.0,WeatherDisplay:10.37,2013-12-19 23:10:00,
2013-12-19 17:15:00,29.8,11.5,29.74,NNE,22,3.3,8.1,46,0.00,CLR,SCT,0.00,0.0,WeatherDisplay:10.37,2013-12-19 23:15:00,
2013-12-19 17:20:00,29.5,11.2,29.74,NNE,22,4.9,8.1,46,0.00,CLR,SCT,0.00,0.0,WeatherDisplay:10.37,2013-12-19 23:20:00,
2013-12-19 17:25:00,29.3,11.1,29.74,NNW,338,3.6,6.9,46,0.00,CLR,SCT,0.00,0.0,WeatherDisplay:10.37,2013-12-19 23:25:00,
2013-12-19 17:30:00,29.1,10.9,29.74,South,180,2.6,4.0,46,0.00,CLR,SCT,0.00,0.0,WeatherDisplay:10.37,2013-12-19 23:30:00,
2013-12-19 17:35:00,28.9,11.2,29.74,SSE,158,4.5,6.0,47,0.00,CLR,SCT,0.00,0.0,WeatherDisplay:10.37,2013-12-19 23:35:00,
2013-12-19 17:40:00,28.8,11.5,29.77,NNW,338,4.7,6.9,48,0.00,CLR,SCT,0.00,0.0,WeatherDisplay:10.37,2013-12-19 23:40:00,
2013-12-19 17:45:00,28.6,11.3,29.77,NNE,22,5.9,8.1,48,0.00,CLR,SCT,0.00,0.0,WeatherDisplay:10.37,2013-12-19 23:45:00,
2013-12-19 17:50:00,28.6,11.8,29.77,SSW,202,3.8,8.1,49,0.00,CLR,SCT,0.00,0.0,WeatherDisplay:10.37,2013-12-19 23:50:00,
2013-12-19 17:55:00,28.4,12.1,29.77,NNW,338,3.6,6.9,50,0.00,CLR,SCT,0.00,0.0,WeatherDisplay:10.37,2013-12-19 23:55:00,
2013-12-19 18:00:00,28.2,11.9,29.77,NNW,338,4.5,6.9,50,0.00,CLR,SCT,0.00,0.0,WeatherDisplay:10.37,2013-12-20 00:00:00,
2013-12-19 18:05:00,28.0,12.2,29.77,NNW,338,2.9,6.0,51,0.00,CLR,SCT,0.00,0.0,WeatherDisplay:10.37,2013-12-20 00:05:00,
2013-12-19 18:10:00,27.9,12.5,29.77,NNE,22,2.6,4.6,52,0.00,CLR,SCT,0.00,0.0,WeatherDisplay:10.37,2013-12-20 00:10:00,
2013-12-19 18:15:00,27.7,12.8,29.77,North,0,5.4,7.4,53,0.00,CLR,SCT,0.00,0.0,WeatherDisplay:10.37,2013-12-20 00:15:00,
2013-12-19 18:20:00,27.5,12.6,29.77,NNE,22,4.9,7.8,53,0.00,CLR,SCT,0.00,0.0,WeatherDisplay:10.37,2013-12-20 00:20:00,
2013-12-19 18:25:00,27.3,12.8,29.77,North,0,4.5,6.9,54,0.00,CLR,SCT,0.00,0.0,WeatherDisplay:10.37,2013-12-20 00:25:00,
2013-12-19 18:30:00,27.0,12.5,29.77,North,0,4.9,9.2,54,0.00,CLR,SCT,0.00,0.0,WeatherDisplay:10.37,2013-12-20 00:30:00,
2013-12-19 18:35:00,27.0,12.5,29.77,NNW,338,3.6,6.4,54,0.00,CLR,SCT,0.00,0.0,WeatherDisplay:10.37,2013-12-20 00:35:00,
2013-12-19 18:40:00,26.6,12.6,29.77,ENE,68,5.4,10.4,55,0.00,CLR,SCT,0.00,0.0,WeatherDisplay:10.37,2013-12-20 00:40:00,
2013-12-19 18:45:00,26.4,12.4,29.77,NNW,338,5.4,8.1,55,0.00,CLR,SCT,0.00,0.0,WeatherDisplay:10.37,2013-12-20 00:45:00,
2013-12-19 18:50:00,26.2,12.7,29.77,North,0,5.4,6.9,56,0.00,CLR,SCT,0.00,0.0,WeatherDisplay:10.37,2013-12-20 00:50:00,
2013-12-19 18:55:00,26.1,12.5,29.77,SSW,202,3.6,5.8,56,0.00,CLR,SCT,0.00,0.0,WeatherDisplay:10.37,2013-12-20 00:55:00,
2013-12-19 19:00:00,25.7,12.6,29.77,NNE,22,4.3,8.5,57,0.00,CLR,SCT,0.00,0.0,WeatherDisplay:10.37,2013-12-20 01:00:00,
2013-12-19 19:05:00,25.5,12.4,29.77,North,0,3.6,6.9,57,0.00,CLR,SCT,0.00,0.0,WeatherDisplay:10.37,2013-12-20 01:05:00,
2013-12-19 19:10:00,25.3,12.6,29.77,North,0,4.0,7.8,58,0.00,CLR,SCT,0.00,0.0,WeatherDisplay:10.37,2013-12-20 01:10:00,
2013-12-19 19:15:00,25.0,12.3,29.77,ENE,68,4.9,10.4,58,0.00,CLR,SCT,0.00,0.0,WeatherDisplay:10.37,2013-12-20 01:15:00,
2013-12-19 19:20:00,24.6,12.3,29.77,NNE,22,4.3,6.0,59,0.00,CLR,SCT,0.00,0.0,WeatherDisplay:10.37,2013-12-20 01:20:00,
2013-12-19 19:25:00,24.4,12.5,29.77,NNW,338,3.1,4.6,60,0.00,CLR,SCT,0.00,0.0,WeatherDisplay:10.37,2013-12-20 01:25:00,
2013-12-19 19:30:00,24.3,12.4,29.77,North,0,5.4,8.5,60,0.00,CLR,SCT,0.00,0.0,WeatherDisplay:10.37,2013-12-20 01:30:00,
2013-12-19 19:35:00,23.9,12.0,29.77,NNW,338,6.0,8.1,60,0.00,CLR,SCT,0.00,0.0,WeatherDisplay:10.37,2013-12-20 01:35:00,
2013-12-19 19:40:00,23.7,12.2,29.77,NNW,338,3.1,8.1,61,0.00,CLR,SCT,0.00,0.0,WeatherDisplay:10.37,2013-12-20 01:40:00,
2013-12-19 19:45:00,23.5,12.4,29.77,NNW,338,5.9,8.1,62,0.00,CLR,SCT,0.00,0.0,WeatherDisplay:10.37,2013-12-20 01:45:00,
2013-12-19 19:50:00,23.0,11.2,29.77,North,0,4.9,8.1,60,0.00,CLR,SCT,0.00,0.0,WeatherDisplay:10.37,2013-12-20 01:50:00,
2013-12-19 19:55:00,22.8,11.0,29.80,NNE,22,5.4,8.1,60,0.00,CLR,SCT,0.00,0.0,WeatherDisplay:10.37,2013-12-20 01:55:00,
2013-12-19 20:00:00,22.1,9.9,29.80,North,0,6.2,6.9,59,0.00,CLR,SCT,0.00,0.0,WeatherDisplay:10.37,2013-12-20 02:00:00,
2013-12-19 20:05:00,21.9,10.1,29.80,North,0,7.6,10.4,60,0.00,CLR,SCT,0.00,0.0,WeatherDisplay:10.37,2013-12-20 02:05:00,
2013-12-19 20:10:00,21.7,10.0,29.80,WNW,292,4.7,6.9,60,0.00,CLR,SCT,0.00,0.0,WeatherDisplay:10.37,2013-12-20 02:10:00,
2013-12-19 20:15:00,21.2,9.8,29.80,NNW,338,5.6,9.7,61,0.00,CLR,SCT,0.00,0.0,WeatherDisplay:10.37,2013-12-20 02:15:00,
2013-12-19 20:20:00,21.2,9.8,29.80,NNE,22,4.0,5.8,61,0.00,CLR,SCT,0.00,0.0,WeatherDisplay:10.37,2013-12-20 02:20:00,
2013-12-19 20:25:00,21.0,10.0,29.83,NNE,22,4.7,8.1,62,0.00,CLR,SCT,0.00,0.0,WeatherDisplay:10.37,2013-12-20 02:25:00,
2013-12-19 20:30:00,20.8,10.2,29.83,North,0,4.3,10.4,63,0.00,CLR,SCT,0.00,0.0,WeatherDisplay:10.37,2013-12-20 02:30:00,
2013-12-19 20:35:00,20.8,10.2,29.83,NE,45,6.2,9.2,63,0.00,CLR,SCT,0.00,0.0,WeatherDisplay:10.37,2013-12-20 02:35:00,
2013-12-19 20:40:00,20.7,10.0,29.80,South,180,5.9,8.7,63,0.00,CLR,SCT,0.00,0.0,WeatherDisplay:10.37,2013-12-20 02:40:00,
2013-12-19 20:46:00,20.5,10.2,29.80,NNE,22,4.9,6.9,64,0.00,CLR,SCT,0.00,0.0,WeatherDisplay:10.37,2013-12-20 02:46:00,
2013-12-19 20:51:00,20.5,10.6,29.80,NNW,338,5.6,9.2,65,0.00,CLR,SCT,0.00,0.0,WeatherDisplay:10.37,2013-12-20 02:51:00,
2013-12-19 20:56:00,20.3,10.4,29.83,NNE,22,4.9,9.2,65,0.00,CLR,SCT,0.00,0.0,WeatherDisplay:10.37,2013-12-20 02:56:00,
2013-12-19 21:01:00,20.3,10.7,29.83,WNW,292,3.1,6.2,66,0.00,CLR,SCT,0.00,0.0,WeatherDisplay:10.37,2013-12-20 03:01:00,
2013-12-19 21:06:00,20.3,10.7,29.83,WNW,292,6.2,13.8,66,0.00,CLR,SCT,0.00,0.0,WeatherDisplay:10.37,2013-12-20 03:06:00,
2013-12-19 21:11:00,20.1,10.9,29.83,NNE,22,5.9,8.1,67,0.00,CLR,SCT,0.00,0.0,WeatherDisplay:10.37,2013-12-20 03:11:00,
2013-12-19 21:16:00,20.1,10.9,29.83,North,0,3.8,3.8,67,0.00,CLR,SCT,0.00,0.0,WeatherDisplay:10.37,2013-12-20 03:16:00,
2013-12-19 21:21:00,20.1,11.2,29.83,North,0,5.9,6.9,68,0.00,CLR,SCT,0.00,0.0,WeatherDisplay:10.37,2013-12-20 03:21:00,
2013-12-19 21:26:00,20.3,11.4,29.83,NNE,22,4.3,5.8,68,0.00,CLR,SCT,0.00,0.0,WeatherDisplay:10.37,2013-12-20 03:26:00,
2013-12-19 21:31:00,20.1,11.2,29.83,NNW,338,5.4,9.2,68,0.00,CLR,SCT,0.00,0.0,WeatherDisplay:10.37,2013-12-20 03:31:00,
2013-12-19 21:36:00,20.1,11.2,29.83,WNW,292,4.9,5.8,68,0.00,CLR,SCT,0.00,0.0,WeatherDisplay:10.37,2013-12-20 03:36:00,
2013-12-19 21:41:00,20.1,11.2,29.83,North,0,4.5,5.8,68,0.00,CLR,SCT,0.00,0.0,WeatherDisplay:10.37,2013-12-20 03:41:00,
2013-12-19 21:46:00,19.9,11.1,29.83,NNE,22,5.4,5.8,68,0.00,CLR,SCT,0.00,0.0,WeatherDisplay:10.37,2013-12-20 03:46:00,
2013-12-19 21:51:00,19.8,10.6,29.83,SSE,158,5.9,9.2,67,0.00,CLR,SCT,0.00,0.0,WeatherDisplay:10.37,2013-12-20 03:51:00,
2013-12-19 21:56:00,19.8,10.6,29.83,NNE,22,5.4,5.8,67,0.00,CLR,SCT,0.00,0.0,WeatherDisplay:10.37,2013-12-20 03:56:00,
2013-12-19 22:01:00,19.6,10.7,29.83,NNW,338,2.9,8.1,68,0.00,CLR,SCT,0.00,0.0,WeatherDisplay:10.37,2013-12-20 04:01:00,
2013-12-19 22:06:00,19.6,10.7,29.83,NNE,22,5.9,6.9,68,0.00,CLR,SCT,0.00,0.0,WeatherDisplay:10.37,2013-12-20 04:06:00,
2013-12-19 22:11:00,19.6,10.7,29.83,NNW,338,4.0,6.9,68,0.00,CLR,SCT,0.00,0.0,WeatherDisplay:10.37,2013-12-20 04:11:00,
2013-12-19 22:16:00,19.6,10.7,29.83,SSW,202,5.6,10.5,68,0.00,CLR,SCT,0.00,0.0,WeatherDisplay:10.37,2013-12-20 04:16:00,
2013-12-19 22:21:00,19.4,10.6,29.83,North,0,6.0,8.5,68,0.00,CLR,SCT,0.00,0.0,WeatherDisplay:10.37,2013-12-20 04:21:00,
2013-12-19 22:26:00,19.4,10.9,29.83,North,0,5.9,8.1,69,0.00,CLR,SCT,0.00,0.0,WeatherDisplay:10.37,2013-12-20 04:26:00,
2013-12-19 22:31:00,19.4,10.9,29.83,North,0,4.5,6.9,69,0.00,CLR,SCT,0.00,0.0,WeatherDisplay:10.37,2013-12-20 04:31:00,
2013-12-19 22:36:00,19.2,10.7,29.83,NNE,22,5.4,8.1,69,0.00,CLR,SCT,0.00,0.0,WeatherDisplay:10.37,2013-12-20 04:36:00,
2013-12-19 22:41:00,19.4,11.2,29.83,North,0,4.0,8.1,70,0.00,CLR,SCT,0.00,0.0,WeatherDisplay:10.37,2013-12-20 04:41:00,
2013-12-19 22:46:00,19.2,11.4,29.83,North,0,6.7,12.7,71,0.00,CLR,SCT,0.00,0.0,WeatherDisplay:10.37,2013-12-20 04:46:00,
2013-12-19 22:51:00,19.2,11.0,29.83,NE,45,4.0,8.1,70,0.00,CLR,SCT,0.00,0.0,WeatherDisplay:10.37,2013-12-20 04:51:00,
2013-12-19 22:56:00,19.2,11.4,29.83,NNW,338,6.4,9.2,71,0.00,CLR,SCT,0.00,0.0,WeatherDisplay:10.37,2013-12-20 04:56:00,
2013-12-19 23:01:00,19.2,11.4,29.83,NNW,338,4.9,9.2,71,0.00,CLR,SCT,0.00,0.0,WeatherDisplay:10.37,2013-12-20 05:01:00,
2013-12-19 23:02:00,19.2,11.4,29.83,North,0,7.1,11.5,71,0.00,CLR,SCT,0.00,0.0,WeatherDisplay:10.37,2013-12-20 05:02:00,
2013-12-19 23:04:00,19.2,11.4,29.83,NNE,22,5.9,8.1,71,0.00,CLR,SCT,0.00,0.0,WeatherDisplay:10.37,2013-12-20 05:04:00,
2013-12-19 23:09:00,19.2,11.4,29.83,WNW,292,3.1,6.0,71,0.00,CLR,SCT,0.00,0.0,WeatherDisplay:10.37,2013-12-20 05:09:00,
2013-12-19 23:14:00,19.0,11.2,29.83,North,0,4.9,8.1,71,0.00,CLR,SCT,0.00,0.0,WeatherDisplay:10.37,2013-12-20 05:14:00,
2013-12-19 23:19:00,19.0,11.2,29.83,North,0,5.6,10.4,71,0.00,CLR,SCT,0.00,0.0,WeatherDisplay:10.37,2013-12-20 05:19:00,
2013-12-19 23:24:00,19.0,11.2,29.83,NNE,22,4.0,6.7,71,0.00,CLR,SCT,0.00,0.0,WeatherDisplay:10.37,2013-12-20 05:24:00,
2013-12-19 23:29:00,18.9,10.7,29.83,North,0,6.0,11.5,70,0.00,CLR,SCT,0.00,0.0,WeatherDisplay:10.37,2013-12-20 05:29:00,
2013-12-19 23:34:00,18.9,11.0,29.83,North,0,3.6,7.6,71,0.00,CLR,SCT,0.00,0.0,WeatherDisplay:10.37,2013-12-20 05:34:00,
2013-12-19 23:39:00,18.7,10.8,29.83,SSW,202,6.0,8.1,71,0.00,CLR,SCT,0.00,0.0,WeatherDisplay:10.37,2013-12-20 05:39:00,
2013-12-19 23:44:00,18.7,10.8,29.83,WSW,248,5.9,9.8,71,0.00,CLR,SCT,0.00,0.0,WeatherDisplay:10.37,2013-12-20 05:44:00,
2013-12-19 23:48:00,18.5,10.3,29.83,North,0,4.9,9.2,70,0.00,CLR,SCT,0.00,0.0,WeatherDisplay:10.37,2013-12-20 05:48:00,
2013-12-19 23:53:00,18.3,10.2,29.83,ENE,68,6.4,9.2,70,0.00,CLR,SCT,0.00,0.0,WeatherDisplay:10.37,2013-12-20 05:53:00,
2013-12-19 23:58:00,18.3,10.2,29.83,NNW,338,4.5,8.1,70,0.00,CLR,SCT,0.00,0.0,WeatherDisplay:10.37,2013-12-20 05:58:00,